Location: Sungai Jaoh
(2.9167°N, 113.9167°E)
Time: 05:54:44
(UTC+00:00)

Cosmos 2082 Rocket - Pass Details

Date: 30 November 2020
Orbit: 831 x 855 km, 71.0° (Epoch: 25 January)

Event Time Altitude Azimuth Distance (km) Brightness Sun altitude
Rises 12:37:19 0° 185° (S) 3,371 5.7 -34.4°
Reaches altitude 10° 12:39:49 10° 180° (S) 2,435 4.8 -34.9°
Enters shadow 12:40:44 15° 177° (S) 2,103 4.4 -35.1°
